Weather History for Eureka, NV

Change the Weather History Date:

Tuesday, October 9, 2012

  Actual Average Record
Temperature  
Mean Temperature 52 °F 49 °F  
Max Temperature 74 °F 67 °F 87 °F (1996)
Min Temperature 30 °F 30 °F 11 °F (1968)
Degree Days  
Heating Degree Days 13 16  
Month to date heating degree days 93 131  
Since 1 July heating degree days 176 395  
Cooling Degree Days 0 0  
Month to date cooling degree days 0 0  
Year to date cooling degree days 529 288  
Growing Degree Days 2 (Base 50)    
Moisture  
Dew Point 18 °F    
Average Humidity 32    
Maximum Humidity 52    
Minimum Humidity 12    
Precipitation  
Precipitation 0.00 in 0.02 in 0.03 in (2000)
Month to date precipitation 0.00 0.17  
Year to date precipitation 5.47 7.04  
Sea Level Pressure  
Sea Level Pressure 29.90 in    
Wind  
Wind Speed 7 mph (SSE)    
Max Wind Speed 22 mph    
Max Gust Speed 28 mph    
T = Trace of Precipitation, MM = Missing Value Source: NWS Daily Summary

Daily Weather History Graph

Daily Weather History Graph

Search for Another Location

Airport:

Trip Planner

Search our weather history database for the weather conditions in past years. The results will help you decide how hot, cold, wet, or windy it might be!

Date:

Astronomy

Oct. 09, 2012 Rise Set
Actual Time 6:48 AM PDT 6:12 PM PDT
Civil Twilight 6:21 AM PDT 6:39 PM PDT
Nautical Twilight 5:50 AM PDT 7:11 PM PDT
Astronomical Twilight 5:19 AM PDT 7:42 PM PDT
Moon 12:30 AM PDT (10/9) 2:41 PM PDT (10/9)
Length of Visible Light 12h 18m
Length of Day
11h 24m
Waning Crescent, 35% of the Moon is Illuminated
Oct 9
Waning Crescent
Oct 15
New
Oct 21
First Quarter
Oct 29
Full
Nov 6
Last Quarter

Hourly Weather History & Observations

Time (PDT) Temp. Windchill Dew Point Humidity Pressure Visibility Wind Dir Wind Speed Gust Speed Precip Events Conditions
12:53 AM 43.0 °F 41.3 °F 19.0 °F 38% 29.86 in - Variable 3.5 mph - N/A   Unknown
1:53 AM 42.1 °F 37.1 °F 19.9 °F 41% 29.87 in - SSW 8.1 mph - N/A   Unknown
2:53 AM 41.0 °F 36.4 °F 19.9 °F 43% 29.87 in - SSW 6.9 mph - N/A   Unknown
3:53 AM 43.0 °F 39.5 °F 19.0 °F 38% 29.86 in - SSE 5.8 mph - N/A   Unknown
4:53 AM 39.0 °F 34.0 °F 19.0 °F 45% 29.88 in - SSW 6.9 mph - N/A   Unknown
5:53 AM 36.0 °F 31.1 °F 19.0 °F 50% 29.90 in - SSW 5.8 mph - N/A   Unknown
6:53 AM 33.1 °F 27.7 °F 18.0 °F 54% 29.96 in - SW 5.8 mph - N/A   Unknown
7:53 AM 37.9 °F - 19.0 °F 47% 29.97 in - Calm Calm - N/A   Unknown
8:53 AM 50.0 °F - 19.9 °F 31% 29.94 in - Calm Calm - N/A   Unknown
9:53 AM 57.0 °F - 19.9 °F 24% 29.92 in - Calm Calm - N/A   Unknown
10:53 AM 64.0 °F - 21.9 °F 20% 29.90 in - North 6.9 mph - N/A   Unknown
11:36 AM 68.0 °F - 19.0 °F 15% 30.06 in - SE 11.5 mph 21.9 mph N/A   Unknown
11:53 AM 68.0 °F - 19.0 °F 15% 29.89 in - ESE 11.5 mph 20.7 mph N/A   Unknown
12:30 PM 71.1 °F - 12.9 °F 11% 30.05 in - South 16.1 mph - N/A   Unknown
12:53 PM 71.1 °F - 15.1 °F 12% 29.87 in - South 15.0 mph 21.9 mph N/A   Unknown
1:53 PM 72.0 °F - 16.0 °F 12% 29.85 in - South 10.4 mph - N/A   Unknown
2:53 PM 72.0 °F - 17.1 °F 12% 29.85 in - SSE 15.0 mph 23.0 mph N/A   Unknown
3:53 PM 72.0 °F - 19.0 °F 13% 29.83 in - SSE 12.7 mph 20.7 mph N/A   Unknown
4:53 PM 72.0 °F - 18.0 °F 13% 29.84 in - SSE 15.0 mph 26.5 mph N/A   Unknown
5:53 PM 68.0 °F - 18.0 °F 15% 29.87 in - SSE 15.0 mph - N/A   Unknown
6:53 PM 57.9 °F - 19.9 °F 23% 29.92 in - SE 10.4 mph - N/A   Unknown
7:53 PM 55.9 °F - 19.0 °F 24% 29.92 in - SE 9.2 mph - N/A   Unknown
8:53 PM 55.0 °F - 21.0 °F 27% 29.90 in - SE 10.4 mph - N/A   Unknown
9:53 PM 55.9 °F - 17.1 °F 22% 29.88 in - Calm Calm - N/A   Unknown
10:53 PM 55.0 °F - 15.1 °F 21% 29.86 in - Calm Calm - N/A   Unknown
11:53 PM 53.1 °F - 15.1 °F 22% 29.86 in - Calm Calm - N/A   Unknown